KD7CIH Weather Reports


time (UTC)temp
C
wind
direction
speed
KPH
gust
KPH
rain 1hr
cm
rain 24hr
cm
rain mn
cm
humidity
%
barometer
mb
20260505004028 18 22 9.7 19.3 0.00 0.00 0.00 18 1001.7
20260505003530 19 44 11.3 14.5 0.00 0.00 0.00 18 1001.5
20260505003031 19 336 11.3 29.0 0.00 0.00 0.00 18 1001.7
20260505002529 20 335 12.9 29.0 0.00 0.00 0.00 17 1001.5
20260505002029 20 308 11.3 29.0 0.00 0.00 0.00 17 1001.5
20260505001712 20 269 9.7 29.0 0.00 0.00 0.00 17 1001.4
20260505001029 20 311 11.3 19.3 0.00 0.00 0.00 16 1001.5
20260505000530 20 299 11.3 19.3 0.00 0.00 0.00 17 1001.7
20260505000030 20 288 11.3 19.3 0.00 0.00 0.00 17 1001.5
20260504235530 20 23 9.7 20.9 0.00 0.00 0.00 17 1001.5
20260504235030 20 290 9.7 20.9 0.00 0.00 0.00 17 1001.5
20260504234530 19 277 11.3 20.9 0.00 0.00 0.00 17 1001.7
20260504234214 20 337 9.7 20.9 0.00 0.00 0.00 17 1001.7
20260504233530 20 49 8.0 17.7 0.00 0.00 0.00 17 1001.5
20260504233030 20 333 11.3 33.8 0.00 0.00 0.00 17 1001.5
20260504232530 19 41 17.7 33.8 0.00 0.00 0.00 17 1001.5
20260504232216 19 21 19.3 33.8 0.00 0.00 0.00 18 1001.5
20260504231715 20 40 16.1 33.8 0.00 0.00 0.00 17 1001.5
20260504231032 20 34 17.7 29.0 0.00 0.00 0.00 17 1001.5
20260504230531 20 305 17.7 30.6 0.00 0.00 0.00 17 1001.5
20260504230031 20 333 14.5 32.2 0.00 0.00 0.00 16 1001.5
20260504225531 20 347 11.3 32.2 0.00 0.00 0.00 16 1001.5
20260504225030 20 301 9.7 20.9 0.00 0.00 0.00 16 1001.4
20260504224530 20 317 11.3 24.1 0.00 0.00 0.00 16 1001.4
20260504224030 20 340 12.9 25.7 0.00 0.00 0.00 16 1001.7
20260504223530 20 309 11.3 25.7 0.00 0.00 0.00 15 1001.5
20260504223031 20 342 9.7 24.1 0.00 0.00 0.00 16 1001.5
20260504222530 20 278 14.5 32.2 0.00 0.00 0.00 16 1001.7
20260504222216 20 26 17.7 35.4 0.00 0.00 0.00 15 1001.7
20260504221530 20 317 14.5 35.4 0.00 0.00 0.00 15 1001.7
20260504221030 20 42 11.3 22.5 0.00 0.00 0.00 17 1001.8
20260504220530 20 328 14.5 24.1 0.00 0.00 0.00 17 1001.8
20260504220029 20 332 14.5 24.1 0.00 0.00 0.00 17 1001.9
20260504215529 20 0 9.7 22.5 0.00 0.00 0.00 18 1002.0
20260504215215 19 327 9.7 19.3 0.00 0.00 0.00 17 1002.0
20260504214529 19 44 11.3 20.9 0.00 0.00 0.00 18 1002.2
20260504214029 18 55 11.3 25.7 0.00 0.00 0.00 18 1002.3
20260504213529 19 327 11.3 25.7 0.00 0.00 0.00 18 1002.5
20260504213029 19 302 16.1 29.0 0.00 0.00 0.00 17 1002.5
20260504212528 20 325 12.9 29.0 0.00 0.00 0.00 16 1002.6
20260504212029 20 12 6.4 19.3 0.00 0.00 0.00 16 1002.6
20260504211529 20 222 8.0 32.2 0.00 0.00 0.00 16 1002.6
20260504211029 20 265 12.9 32.2 0.00 0.00 0.00 16 1002.6
20260504210529 19 24 16.1 33.8 0.00 0.00 0.00 16 1002.8
20260504210029 19 318 14.5 33.8 0.00 0.00 0.00 17 1002.8
20260504205715 19 346 9.7 22.5 0.00 0.00 0.00 17 1002.9
20260504205029 18 250 12.9 25.7 0.00 0.00 0.00 16 1002.9
20260504204529 19 308 11.3 25.7 0.00 0.00 0.00 15 1003.0
20260504204029 19 292 11.3 22.5 0.00 0.00 0.00 16 1003.0
20260504203530 19 279 14.5 24.1 0.00 0.00 0.00 15 1003.1
20260504203030 20 18 14.5 24.1 0.00 0.00 0.00 16 1003.1
20260504202530 19 272 11.3 22.5 0.00 0.00 0.00 17 1003.1
20260504202029 20 250 9.7 25.7 0.00 0.00 0.00 16 1003.2
20260504201529 19 262 8.0 25.7 0.00 0.00 0.00 17 1003.4
20260504201029 19 173 8.0 19.3 0.00 0.00 0.00 17 1003.4
20260504200528 18 56 9.7 19.3 0.00 0.00 0.00 17 1003.6
20260504200214 18 70 11.3 19.3 0.00 0.00 0.00 17 1003.6
20260504195530 18 333 11.3 20.9 0.00 0.00 0.00 17 1003.7
20260504195030 19 296 12.9 20.9 0.00 0.00 0.00 17 1003.7
20260504194530 19 336 11.3 20.9 0.00 0.00 0.00 18 1003.6
20260504194214 19 15 9.7 20.9 0.00 0.00 0.00 17 1003.8
20260504193531 19 281 9.7 20.9 0.00 0.00 0.00 17 1003.7
20260504193030 18 346 9.7 20.9 0.00 0.00 0.00 18 1004.0
20260504192530 18 291 8.0 20.9 0.00 0.00 0.00 18 1004.0
20260504192030 18 329 9.7 22.5 0.00 0.00 0.00 18 1004.1
20260504191530 18 288 12.9 22.5 0.00 0.00 0.00 18 1004.2
20260504191216 18 311 11.3 24.1 0.00 0.00 0.00 17 1004.2
20260504190534 18 53 12.9 25.7 0.00 0.00 0.00 18 1004.2
20260504190030 18 329 14.5 25.7 0.00 0.00 0.00 18 1004.4
20260504185532 19 50 9.7 24.1 0.00 0.00 0.00 18 1004.4
20260504185030 18 14 6.4 19.3 0.00 0.00 0.00 18 1004.4
20260504184530 18 231 6.4 19.3 0.00 0.00 0.00 20 1004.7
20260504184216 18 286 9.7 19.3 0.00 0.00 0.00 19 1004.8
20260504183715 18 337 11.3 19.3 0.00 0.00 0.00 19 1004.8
20260504183031 18 299 11.3 20.9 0.00 0.00 0.00 20 1004.8
20260504182715 17 241 11.3 22.5 0.00 0.00 0.00 19 1004.9
20260504182031 18 317 8.0 22.5 0.00 0.00 0.00 19 1005.0
20260504181530 18 245 6.4 22.5 0.00 0.00 0.00 19 1005.0
20260504181030 18 342 4.8 22.5 0.00 0.00 0.00 20 1005.0
20260504180716 18 261 4.8 17.7 0.00 0.00 0.00 20 1005.2
20260504180134 17 217 6.4 14.5 0.00 0.00 0.00 21 1005.3
20260504175531 17 273 4.8 14.5 0.00 0.00 0.00 20 1005.3
20260504175030 17 284 4.8 14.5 0.00 0.00 0.00 21 1005.4
20260504174529 17 29 8.0 16.1 0.00 0.00 0.00 21 1005.4
20260504174030 17 88 6.4 16.1 0.00 0.00 0.00 21 1005.5
20260504173531 17 32 3.2 9.7 0.00 0.00 0.00 21 1005.7
20260504173215 18 59 3.2 12.9 0.00 0.00 0.00 22 1005.5
20260504172528 17 233 6.4 12.9 0.00 0.00 0.00 23 1005.7
20260504172030 17 73 6.4 12.9 0.00 0.00 0.00 24 1005.7
20260504171713 17 96 6.4 17.7 0.00 0.00 0.00 23 1005.7
20260504171029 17 207 8.0 17.7 0.00 0.00 0.00 24 1005.8
20260504170528 17 255 9.7 17.7 0.00 0.00 0.00 24 1005.8
20260504130648 3 17 1.6 3.2 0.00 0.00 0.00 58 1006.7
20260504130147 2 16 3.2 8.0 0.00 0.00 0.00 59 1006.6
20260504110641 3 53 1.6 8.0 0.00 0.00 0.00 56 1006.5
20260504110140 3 90 0.0 3.2 0.00 0.00 0.00 55 1006.5
20260504090112 5 206 0.0 0.0 0.00 0.00 0.00 46 1006.9
20260504040613 13 306 11.3 16.1 0.00 0.00 0.00 26 1007.5
20260504033112 14 309 8.0 14.5 0.00 0.00 0.00 24 1007.2
20260504032820 14 334 8.0 12.9 0.00 0.00 0.00 24 1007.2
20260504032112 14 308 9.7 12.9 0.00 0.00 0.00 23 1007.1
20260504030114 15 323 9.7 14.5 0.00 0.00 0.00 23 1007.0
20260504023615 16 309 14.5 20.9 0.00 0.00 0.00 19 1006.9
20260504022116 16 267 9.7 19.3 0.00 0.00 0.00 20 1006.9
20260504012614 18 319 14.5 29.0 0.00 0.00 0.00 17 1007.0